Flag for Mongolia Weather past 2 weeks in Ulaanbaatar, Mongolia

Now
75 °F

Scattered clouds.


Feels Like: 77 °F
Forecast: 48 / 74 °F
Wind: 8 mph from East

Location: Ulan-Bator

Current Time: Aug 29, 2015 at 6:54:50 PM

Latest Report: Aug 29, 2015 at 6:30 PM


Visibility: N/A

Pressure: 30.07 "Hg (25.90 "Hg at 1298m altitude)

Humidity: 29%

Dew point: 41 °F

Location of UlaanbaatarLocation

Historic Weather in Ulaanbaatar — Graph

°F

Ulaanbaatar temperature yesterday

Maximum temperature yesterday: 75 °F (at 12:00 PM)
Minimum temperature yesterday: 46 °F (at 7:30 AM)
Average temperature yesterday: 64 °F

Past Weeks' High & Low Weather Summary

 TemperatureHumidityPressure
High86 °F (Aug 15, 4:30 PM)94% (Aug 17, 4:00 AM)30.21 "Hg (Aug 17, 4:00 AM)
Low41 °F (Aug 21, 6:00 AM)11% (Aug 15, 5:30 PM)29.62 "Hg (Aug 16, 3:30 PM)
Average66 °F49%29.98 "Hg
* Reported Aug 14 4:00 PM — Aug 29 4:30 PM, Ulaanbaatar, Weather by CustomWeather, © 2015

Note: Actual official high and low records may vary slightly from our data, if they occured in-between our weather recording intervals... More about our weather records

Advertising

Ulaanbaatar weather history for previous 24 hours

 ConditionsComfort  
Time TempWeatherWind HumidityBarometerVisibility
4:30 PM
Sat, Aug 29
75 °FScattered clouds.3 mph31%30.09 "HgN/A
4:00 PM73 °FScattered clouds.6 mph31%30.09 "HgN/A
3:00 PM73 °FScattered clouds.3 mph36%30.12 "HgN/A
2:30 PM73 °FScattered clouds.3 mph38%30.12 "HgN/A
2:00 PM72 °FScattered clouds.6 mph41%30.12 "HgN/A
1:00 PM68 °FScattered clouds.3 mph49%30.15 "HgN/A
12:30 PM68 °FScattered clouds.6 mph53%30.15 "HgN/A
12:00 PM66 °FPassing clouds.3 mph56%30.18 "HgN/A
11:30 AM64 °FPassing clouds.1 mph60%30.18 "HgN/A
11:00 AM63 °FPassing clouds.No wind64%30.18 "HgN/A
10:30 AM63 °FPassing clouds.No wind64%30.18 "HgN/A
10:00 AM61 °FPassing clouds.No wind63%30.18 "HgN/A
9:30 AM59 °FPassing clouds.3 mph68%30.18 "HgN/A
9:00 AM55 °FPassing clouds.1 mph77%30.18 "HgN/A
8:30 AM52 °FPassing clouds.No wind82%30.15 "HgN/A
8:00 AM52 °FPassing clouds.1 mph82%30.15 "HgN/A
7:30 AM50 °FPassing clouds.1 mph82%30.15 "HgN/A
6:30 AM52 °FPassing clouds.No wind88%30.15 "HgN/A
6:00 AM52 °FPassing clouds.3 mph88%30.12 "HgN/A
5:30 AM48 °FClear.No wind94%30.12 "Hg10 mi
5:00 AM50 °FClear.No wind88%30.12 "Hg10 mi
4:00 AM55 °FClear.1 mph77%30.12 "Hg10 mi
3:00 AM57 °FClear.1 mph77%30.12 "Hg10 mi
2:00 AM54 °FClear.3 mph82%30.12 "Hg10 mi
1:30 AM57 °FClear.3 mph77%30.12 "Hg10 mi
1:00 AM57 °FClear.No wind77%30.09 "Hg10 mi
12:30 AM59 °FClear.1 mph72%30.09 "Hg10 mi
12:00 AM64 °FClear.3 mph64%30.09 "Hg10 mi
11:30 PM
Fri, Aug 28
66 °FClear.6 mph60%30.09 "Hg10 mi
11:00 PM64 °FClear.6 mph64%30.09 "Hg10 mi
10:30 PM64 °FPassing clouds.3 mph64%30.09 "HgN/A
10:00 PM64 °FPassing clouds.6 mph64%30.07 "HgN/A
9:30 PM66 °FPassing clouds.6 mph60%30.07 "HgN/A
9:00 PM68 °FPassing clouds.6 mph56%30.07 "HgN/A
8:30 PM70 °FPartly sunny.13 mph53%30.04 "HgN/A
8:00 PM72 °FPartly sunny.15 mph44%30.04 "HgN/A
7:30 PM73 °FPartly sunny.15 mph38%30.01 "HgN/A
7:00 PM73 °FPartly sunny.15 mph33%30.01 "HgN/A
6:30 PM75 °FPartly sunny.15 mph29%30.01 "HgN/A
6:00 PM75 °FPartly sunny.13 mph29%30.01 "HgN/A
Weather by CustomWeather, © 2015

See weather overviewHow to use our weather pages